| time (UTC) | temp F | wind direction | speed MPH | gust MPH | rain 1hr in | rain 24hr in | rain mn in | humidity % | barometer mb |
| 20260509012740 | 95 | 5 | 3.0 | 13.0 | 0.00 | 0.00 | 0.00 | 8 | 1006.8 |
| 20260509011816 | 95 | 350 | 4.0 | 10.0 | 0.00 | 0.00 | 0.00 | 8 | 1006.9 |
| 20260509011157 | 95 | 317 | 3.0 | 16.0 | 0.00 | 0.00 | 0.00 | 9 | 1007.0 |
| 20260509010832 | 96 | 311 | 5.0 | 16.0 | 0.00 | 0.00 | 0.00 | 9 | 1007.0 |
| 20260509010510 | 96 | 25 | 7.0 | 16.0 | 0.00 | 0.00 | 0.00 | 8 | 1007.0 |
| 20260509010151 | 96 | 355 | 8.0 | 16.0 | 0.00 | 0.00 | 0.00 | 8 | 1007.0 |
| 20260509005826 | 96 | 321 | 7.0 | 16.0 | 0.00 | 0.00 | 0.00 | 8 | 1007.0 |
| 20260509005205 | 96 | 44 | 6.0 | 15.0 | 0.00 | 0.00 | 0.00 | 9 | 1006.8 |
| 20260509004850 | 96 | 85 | 4.0 | 15.0 | 0.00 | 0.00 | 0.00 | 9 | 1006.7 |
| 20260509004531 | 96 | 88 | 3.0 | 8.0 | 0.00 | 0.00 | 0.00 | 9 | 1007.0 |
| 20260509004206 | 97 | 164 | 3.0 | 15.0 | 0.00 | 0.00 | 0.00 | 8 | 1007.2 |
| 20260509003846 | 97 | 316 | 4.0 | 15.0 | 0.00 | 0.00 | 0.00 | 9 | 1007.3 |
| 20260509003229 | 97 | 263 | 6.0 | 15.0 | 0.00 | 0.00 | 0.00 | 9 | 1007.3 |
| 20260509002914 | 98 | 311 | 6.0 | 15.0 | 0.00 | 0.00 | 0.00 | 8 | 1007.3 |
| 20260509002556 | 98 | 315 | 7.0 | 15.0 | 0.00 | 0.00 | 0.00 | 9 | 1007.3 |
| 20260509001937 | 98 | 244 | 7.0 | 14.0 | 0.00 | 0.00 | 0.00 | 10 | 1007.2 |
| 20260509001621 | 98 | 242 | 6.0 | 14.0 | 0.00 | 0.00 | 0.00 | 9 | 1007.2 |
| 20260509001259 | 98 | 273 | 5.0 | 11.0 | 0.00 | 0.00 | 0.00 | 9 | 1007.3 |
| 20260509000944 | 98 | 279 | 5.0 | 16.0 | 0.00 | 0.00 | 0.00 | 9 | 1007.2 |
| 20260509000322 | 99 | 263 | 6.0 | 16.0 | 0.00 | 0.00 | 0.00 | 9 | 1007.4 |
| 20260509000004 | 99 | 234 | 6.0 | 16.0 | 0.00 | 0.00 | 0.00 | 9 | 1007.5 |
| 20260508235645 | 98 | 286 | 6.0 | 16.0 | 0.00 | 0.00 | 0.00 | 9 | 1007.1 |
| 20260508235327 | 98 | 155 | 7.0 | 16.0 | 0.00 | 0.00 | 0.00 | 8 | 1007.4 |
| 20260508234710 | 98 | 228 | 7.0 | 14.0 | 0.00 | 0.00 | 0.00 | 8 | 1007.6 |
| 20260508234354 | 98 | 207 | 6.0 | 14.0 | 0.00 | 0.00 | 0.00 | 9 | 1007.5 |
| 20260508234040 | 99 | 246 | 5.0 | 14.0 | 0.00 | 0.00 | 0.00 | 9 | 1007.6 |
| 20260508233418 | 98 | 305 | 6.0 | 14.0 | 0.00 | 0.00 | 0.00 | 9 | 1007.6 |
| 20260508233055 | 99 | 300 | 7.0 | 14.0 | 0.00 | 0.00 | 0.00 | 8 | 1007.8 |
| 20260508232730 | 99 | 219 | 6.0 | 14.0 | 0.00 | 0.00 | 0.00 | 8 | 1007.8 |
| 20260508232405 | 99 | 246 | 6.0 | 14.0 | 0.00 | 0.00 | 0.00 | 8 | 1007.8 |
| 20260508231742 | 99 | 206 | 7.0 | 13.0 | 0.00 | 0.00 | 0.00 | 9 | 1007.8 |
| 20260508230522 | 98 | 198 | 8.0 | 16.0 | 0.00 | 0.00 | 0.00 | 8 | 1008.0 |
| 20260508230203 | 98 | 199 | 7.0 | 16.0 | 0.00 | 0.00 | 0.00 | 8 | 1008.1 |
| 20260508225846 | 99 | 209 | 7.0 | 16.0 | 0.00 | 0.00 | 0.00 | 9 | 1008.1 |
| 20260508225521 | 99 | 270 | 5.0 | 14.0 | 0.00 | 0.00 | 0.00 | 10 | 1008.1 |
| 20260508225159 | 99 | 244 | 6.0 | 14.0 | 0.00 | 0.00 | 0.00 | 9 | 1008.2 |
| 20260508224540 | 99 | 119 | 6.0 | 11.0 | 0.00 | 0.00 | 0.00 | 9 | 1008.2 |
| 20260508224223 | 99 | 151 | 5.0 | 11.0 | 0.00 | 0.00 | 0.00 | 8 | 1008.2 |
| 20260508223908 | 99 | 157 | 4.0 | 10.0 | 0.00 | 0.00 | 0.00 | 9 | 1008.4 |
| 20260508223543 | 99 | 220 | 2.0 | 9.0 | 0.00 | 0.00 | 0.00 | 9 | 1008.5 |
| 20260508223226 | 100 | 265 | 2.0 | 8.0 | 0.00 | 0.00 | 0.00 | 9 | 1008.4 |
| 20260508222905 | 99 | 171 | 1.0 | 5.0 | 0.00 | 0.00 | 0.00 | 9 | 1008.6 |
| 20260508222551 | 99 | 59 | 1.0 | 4.0 | 0.00 | 0.00 | 0.00 | 9 | 1008.6 |
| 20260508221930 | 99 | 49 | 2.0 | 9.0 | 0.00 | 0.00 | 0.00 | 8 | 1008.7 |
| 20260508221613 | 99 | 50 | 3.0 | 9.0 | 0.00 | 0.00 | 0.00 | 8 | 1008.8 |
| 20260508221251 | 100 | 76 | 4.0 | 10.0 | 0.00 | 0.00 | 0.00 | 10 | 1008.9 |
| 20260508220627 | 101 | 118 | 4.0 | 10.0 | 0.00 | 0.00 | 0.00 | 10 | 1009.0 |
| 20260508220004 | 99 | 86 | 4.0 | 12.0 | 0.00 | 0.00 | 0.00 | 11 | 1009.1 |
| 20260508215346 | 100 | 101 | 5.0 | 13.0 | 0.00 | 0.00 | 0.00 | 10 | 1009.3 |
| 20260508215030 | 99 | 128 | 4.0 | 13.0 | 0.00 | 0.00 | 0.00 | 8 | 1009.2 |
| 20260508214715 | 100 | 234 | 5.0 | 13.0 | 0.00 | 0.00 | 0.00 | 11 | 1009.4 |
| 20260508214358 | 99 | 172 | 5.0 | 13.0 | 0.00 | 0.00 | 0.00 | 9 | 1009.3 |
| 20260508214043 | 99 | 186 | 6.0 | 13.0 | 0.00 | 0.00 | 0.00 | 9 | 1009.4 |
| 20260508213720 | 99 | 246 | 5.0 | 13.0 | 0.00 | 0.00 | 0.00 | 9 | 1009.4 |
| 20260508213407 | 99 | 223 | 5.0 | 12.0 | 0.00 | 0.00 | 0.00 | 9 | 1009.4 |
| 20260508213044 | 99 | 197 | 4.0 | 12.0 | 0.00 | 0.00 | 0.00 | 9 | 1009.4 |
| 20260508212719 | 99 | 133 | 3.0 | 10.0 | 0.00 | 0.00 | 0.00 | 10 | 1009.5 |
| 20260508212359 | 99 | 242 | 3.0 | 9.0 | 0.00 | 0.00 | 0.00 | 10 | 1009.5 |
| 20260508212042 | 98 | 265 | 4.0 | 9.0 | 0.00 | 0.00 | 0.00 | 10 | 1009.6 |
| 20260508211716 | 99 | 277 | 4.0 | 9.0 | 0.00 | 0.00 | 0.00 | 9 | 1009.7 |
| 20260508211400 | 99 | 225 | 4.0 | 9.0 | 0.00 | 0.00 | 0.00 | 9 | 1009.7 |
| 20260508211042 | 99 | 224 | 3.0 | 9.0 | 0.00 | 0.00 | 0.00 | 9 | 1009.7 |
| 20260508210723 | 99 | 74 | 2.0 | 9.0 | 0.00 | 0.00 | 0.00 | 9 | 1009.7 |
| 20260508210404 | 99 | 157 | 2.0 | 9.0 | 0.00 | 0.00 | 0.00 | 10 | 1009.7 |
| 20260508210048 | 99 | 213 | 1.0 | 11.0 | 0.00 | 0.00 | 0.00 | 9 | 1009.7 |
| 20260508205728 | 100 | 340 | 2.0 | 11.0 | 0.00 | 0.00 | 0.00 | 10 | 1009.8 |
| 20260508205105 | 100 | 115 | 3.0 | 11.0 | 0.00 | 0.00 | 0.00 | 9 | 1009.9 |
| 20260508204742 | 100 | 318 | 3.0 | 11.0 | 0.00 | 0.00 | 0.00 | 10 | 1009.9 |
| 20260508204420 | 100 | 324 | 2.0 | 11.0 | 0.00 | 0.00 | 0.00 | 9 | 1010.0 |
| 20260508204103 | 98 | 264 | 2.0 | 9.0 | 0.00 | 0.00 | 0.00 | 9 | 1009.9 |
| 20260508203738 | 98 | 158 | 3.0 | 9.0 | 0.00 | 0.00 | 0.00 | 9 | 1010.0 |
| 20260508203413 | 98 | 244 | 2.0 | 14.0 | 0.00 | 0.00 | 0.00 | 9 | 1010.2 |
| 20260508203051 | 98 | 198 | 3.0 | 14.0 | 0.00 | 0.00 | 0.00 | 9 | 1010.2 |
| 20260508202732 | 98 | 249 | 3.0 | 14.0 | 0.00 | 0.00 | 0.00 | 11 | 1010.2 |
| 20260508202414 | 98 | 275 | 5.0 | 14.0 | 0.00 | 0.00 | 0.00 | 9 | 1010.4 |
| 20260508202049 | 99 | 214 | 3.0 | 14.0 | 0.00 | 0.00 | 0.00 | 9 | 1010.5 |
| 20260508201727 | 99 | 210 | 2.0 | 13.0 | 0.00 | 0.00 | 0.00 | 10 | 1010.5 |
| 20260508201404 | 97 | 281 | 2.0 | 11.0 | 0.00 | 0.00 | 0.00 | 9 | 1010.4 |
| 20260508201040 | 98 | 220 | 3.0 | 8.0 | 0.00 | 0.00 | 0.00 | 9 | 1010.4 |
| 20260508200423 | 97 | 233 | 4.0 | 8.0 | 0.00 | 0.00 | 0.00 | 9 | 1010.6 |
| 20260508200100 | 97 | 161 | 3.0 | 8.0 | 0.00 | 0.00 | 0.00 | 11 | 1010.7 |
| 20260508195738 | 97 | 150 | 3.0 | 10.0 | 0.00 | 0.00 | 0.00 | 10 | 1010.7 |
| 20260508195415 | 97 | 223 | 3.0 | 10.0 | 0.00 | 0.00 | 0.00 | 10 | 1010.8 |
| 20260508194756 | 98 | 193 | 5.0 | 10.0 | 0.00 | 0.00 | 0.00 | 10 | 1010.9 |
| 20260508194442 | 98 | 294 | 4.0 | 10.0 | 0.00 | 0.00 | 0.00 | 9 | 1010.8 |
| 20260508194126 | 99 | 176 | 3.0 | 10.0 | 0.00 | 0.00 | 0.00 | 9 | 1010.9 |
| 20260508193203 | 98 | 9 | 1.0 | 8.0 | 0.00 | 0.00 | 0.00 | 11 | 1011.0 |
| 20260508192847 | 97 | 159 | 2.0 | 8.0 | 0.00 | 0.00 | 0.00 | 10 | 1011.1 |
| 20260508192527 | 97 | 79 | 2.0 | 8.0 | 0.00 | 0.00 | 0.00 | 11 | 1011.2 |
| 20260508192205 | 97 | 128 | 2.0 | 8.0 | 0.00 | 0.00 | 0.00 | 11 | 1011.2 |
| 20260508191843 | 96 | 45 | 1.0 | 5.0 | 0.00 | 0.00 | 0.00 | 11 | 1011.3 |
| 20260508191519 | 97 | 163 | 1.0 | 11.0 | 0.00 | 0.00 | 0.00 | 10 | 1011.4 |
| 20260508190900 | 96 | 329 | 2.0 | 11.0 | 0.00 | 0.00 | 0.00 | 10 | 1011.5 |
| 20260508190542 | 96 | 333 | 2.0 | 11.0 | 0.00 | 0.00 | 0.00 | 13 | 1011.5 |
| 20260508190219 | 95 | 262 | 3.0 | 11.0 | 0.00 | 0.00 | 0.00 | 12 | 1011.5 |
| 20260508185858 | 96 | 241 | 3.0 | 11.0 | 0.00 | 0.00 | 0.00 | 10 | 1011.5 |
| 20260508185533 | 96 | 105 | 4.0 | 8.0 | 0.00 | 0.00 | 0.00 | 10 | 1011.5 |
| 20260508185212 | 96 | 177 | 3.0 | 8.0 | 0.00 | 0.00 | 0.00 | 11 | 1011.7 |
| 20260508184848 | 97 | 206 | 3.0 | 8.0 | 0.00 | 0.00 | 0.00 | 13 | 1011.7 |
| 20260508184532 | 97 | 196 | 2.0 | 8.0 | 0.00 | 0.00 | 0.00 | 11 | 1011.7 |
| 20260508184207 | 96 | 87 | 3.0 | 8.0 | 0.00 | 0.00 | 0.00 | 10 | 1011.8 |
| 20260508183845 | 97 | 142 | 3.0 | 8.0 | 0.00 | 0.00 | 0.00 | 10 | 1011.8 |
| 20260508183226 | 98 | 325 | 2.0 | 7.0 | 0.00 | 0.00 | 0.00 | 11 | 1012.0 |
| 20260508182909 | 98 | 307 | 2.0 | 7.0 | 0.00 | 0.00 | 0.00 | 12 | 1012.0 |
| 20260508182554 | 96 | 56 | 2.0 | 6.0 | 0.00 | 0.00 | 0.00 | 11 | 1012.1 |
| 20260508182230 | 96 | 96 | 2.0 | 7.0 | 0.00 | 0.00 | 0.00 | 12 | 1012.1 |
| 20260508181910 | 96 | 110 | 2.0 | 7.0 | 0.00 | 0.00 | 0.00 | 12 | 1012.1 |
| 20260508181547 | 96 | 64 | 2.0 | 7.0 | 0.00 | 0.00 | 0.00 | 12 | 1012.1 |
| 20260508181228 | 96 | 297 | 2.0 | 7.0 | 0.00 | 0.00 | 0.00 | 10 | 1012.1 |
| 20260508180910 | 95 | 275 | 1.0 | 7.0 | 0.00 | 0.00 | 0.00 | 11 | 1012.1 |
| 20260508180544 | 95 | 22 | 1.0 | 7.0 | 0.00 | 0.00 | 0.00 | 13 | 1012.1 |
| 20260508180224 | 95 | 86 | 1.0 | 7.0 | 0.00 | 0.00 | 0.00 | 12 | 1012.2 |
| 20260508175907 | 95 | 278 | 2.0 | 7.0 | 0.00 | 0.00 | 0.00 | 11 | 1012.1 |
| 20260508175242 | 94 | 5 | 2.0 | 6.0 | 0.00 | 0.00 | 0.00 | 13 | 1012.1 |
| 20260508174622 | 94 | 75 | 2.0 | 6.0 | 0.00 | 0.00 | 0.00 | 15 | 1012.2 |
| 20260508174307 | 93 | 101 | 1.0 | 6.0 | 0.00 | 0.00 | 0.00 | 15 | 1012.3 |
| 20260508173943 | 93 | 104 | 2.0 | 6.0 | 0.00 | 0.00 | 0.00 | 11 | 1012.3 |
| 20260508173620 | 94 | 17 | 1.0 | 6.0 | 0.00 | 0.00 | 0.00 | 13 | 1012.4 |
| 20260508173259 | 94 | 93 | 2.0 | 6.0 | 0.00 | 0.00 | 0.00 | 13 | 1012.4 |
| 20260508172940 | 93 | 343 | 2.0 | 8.0 | 0.00 | 0.00 | 0.00 | 15 | 1012.4 |
| 20260508172618 | 93 | 288 | 3.0 | 8.0 | 0.00 | 0.00 | 0.00 | 14 | 1012.5 |
| 20260508172301 | 93 | 54 | 3.0 | 8.0 | 0.00 | 0.00 | 0.00 | 13 | 1012.4 |
| 20260508171941 | 93 | 67 | 3.0 | 8.0 | 0.00 | 0.00 | 0.00 | 15 | 1012.4 |
| 20260508171617 | 93 | 42 | 2.0 | 8.0 | 0.00 | 0.00 | 0.00 | 15 | 1012.4 |
| 20260508171255 | 93 | 28 | 2.0 | 8.0 | 0.00 | 0.00 | 0.00 | 15 | 1012.4 |
| 20260508170940 | 92 | 126 | 2.0 | 6.0 | 0.00 | 0.00 | 0.00 | 14 | 1012.5 |
| 20260508170622 | 92 | 78 | 2.0 | 6.0 | 0.00 | 0.00 | 0.00 | 14 | 1012.5 |
| 20260508170302 | 92 | 118 | 2.0 | 11.0 | 0.00 | 0.00 | 0.00 | 15 | 1012.5 |
| 20260508165948 | 93 | 73 | 3.0 | 11.0 | 0.00 | 0.00 | 0.00 | 15 | 1012.5 |
| 20260508165628 | 92 | 19 | 3.0 | 11.0 | 0.00 | 0.00 | 0.00 | 14 | 1012.5 |
| 20260508165308 | 92 | 33 | 4.0 | 11.0 | 0.00 | 0.00 | 0.00 | 13 | 1012.5 |
| 20260508164943 | 92 | 14 | 4.0 | 11.0 | 0.00 | 0.00 | 0.00 | 13 | 1012.4 |
| 20260508164621 | 92 | 344 | 4.0 | 11.0 | 0.00 | 0.00 | 0.00 | 13 | 1012.5 |
| 20260508164256 | 91 | 344 | 4.0 | 9.0 | 0.00 | 0.00 | 0.00 | 13 | 1012.6 |
| 20260508163934 | 91 | 355 | 4.0 | 9.0 | 0.00 | 0.00 | 0.00 | 13 | 1012.5 |
| 20260508163611 | 91 | 35 | 4.0 | 9.0 | 0.00 | 0.00 | 0.00 | 13 | 1012.5 |
| 20260508163256 | 91 | 337 | 4.0 | 8.0 | 0.00 | 0.00 | 0.00 | 13 | 1012.6 |
| 20260508162636 | 91 | 32 | 3.0 | 7.0 | 0.00 | 0.00 | 0.00 | 14 | 1012.6 |
| 20260508162310 | 90 | 46 | 2.0 | 7.0 | 0.00 | 0.00 | 0.00 | 16 | 1012.6 |
| 20260508161946 | 89 | 0 | 2.0 | 7.0 | 0.00 | 0.00 | 0.00 | 16 | 1012.5 |
| 20260508161625 | 89 | 61 | 1.0 | 5.0 | 0.00 | 0.00 | 0.00 | 17 | 1012.6 |
| 20260508160708 | 88 | 42 | 0.0 | 4.0 | 0.00 | 0.00 | 0.00 | 18 | 1012.6 |
| 20260508160343 | 88 | 75 | 0.0 | 4.0 | 0.00 | 0.00 | 0.00 | 16 | 1012.5 |
| 20260508160026 | 87 | 111 | 0.0 | 4.0 | 0.00 | 0.00 | 0.00 | 16 | 1012.5 |
| 20260508155705 | 86 | 269 | 0.0 | 4.0 | 0.00 | 0.00 | 0.00 | 16 | 1012.7 |
| 20260508155351 | 86 | 192 | 0.0 | 4.0 | 0.00 | 0.00 | 0.00 | 16 | 1012.6 |
| 20260508155031 | 86 | 159 | 0.0 | 4.0 | 0.00 | 0.00 | 0.00 | 19 | 1012.6 |
| 20260508154705 | 85 | 21 | 0.0 | 2.0 | 0.00 | 0.00 | 0.00 | 19 | 1012.6 |
| 20260508154348 | 85 | 51 | 0.0 | 0.0 | 0.00 | 0.00 | 0.00 | 17 | 1012.6 |
| 20260508154028 | 85 | 51 | 0.0 | 2.0 | 0.00 | 0.00 | 0.00 | 18 | 1012.7 |
| 20260508153707 | 84 | 77 | 0.0 | 5.0 | 0.00 | 0.00 | 0.00 | 21 | 1012.6 |
| 20260508153351 | 84 | 148 | 1.0 | 5.0 | 0.00 | 0.00 | 0.00 | 19 | 1012.6 |
| 20260508153035 | 84 | 151 | 1.0 | 5.0 | 0.00 | 0.00 | 0.00 | 19 | 1012.7 |
| 20260508152408 | 83 | 141 | 2.0 | 5.0 | 0.00 | 0.00 | 0.00 | 20 | 1012.7 |
| 20260508152043 | 82 | 115 | 2.0 | 5.0 | 0.00 | 0.00 | 0.00 | 21 | 1012.7 |
| 20260508151726 | 82 | 109 | 2.0 | 5.0 | 0.00 | 0.00 | 0.00 | 22 | 1012.7 |
| 20260508151400 | 81 | 129 | 1.0 | 5.0 | 0.00 | 0.00 | 0.00 | 22 | 1012.7 |
| 20260508151043 | 81 | 103 | 1.0 | 5.0 | 0.00 | 0.00 | 0.00 | 22 | 1012.8 |
| 20260508150122 | 80 | 129 | 1.0 | 3.0 | 0.00 | 0.00 | 0.00 | 23 | 1012.7 |
| 20260508145800 | 79 | 124 | 1.0 | 3.0 | 0.00 | 0.00 | 0.00 | 23 | 1012.7 |
| 20260508145445 | 78 | 155 | 1.0 | 3.0 | 0.00 | 0.00 | 0.00 | 23 | 1012.7 |
| 20260508145123 | 78 | 133 | 1.0 | 3.0 | 0.00 | 0.00 | 0.00 | 23 | 1012.7 |
| 20260508144800 | 77 | 152 | 1.0 | 2.0 | 0.00 | 0.00 | 0.00 | 22 | 1012.7 |
| 20260508144136 | 76 | 110 | 0.0 | 2.0 | 0.00 | 0.00 | 0.00 | 24 | 1012.6 |
| 20260508143819 | 75 | 152 | 0.0 | 3.0 | 0.00 | 0.00 | 0.00 | 24 | 1012.7 |
| 20260508143457 | 74 | 263 | 0.0 | 3.0 | 0.00 | 0.00 | 0.00 | 26 | 1012.7 |
| 20260508143134 | 73 | 188 | 0.0 | 3.0 | 0.00 | 0.00 | 0.00 | 26 | 1012.6 |
| 20260508142813 | 72 | 164 | 0.0 | 3.0 | 0.00 | 0.00 | 0.00 | 26 | 1012.6 |
| 20260508142157 | 71 | 311 | 1.0 | 3.0 | 0.00 | 0.00 | 0.00 | 29 | 1012.6 |
| 20260508141838 | 71 | 147 | 1.0 | 3.0 | 0.00 | 0.00 | 0.00 | 29 | 1012.6 |
| 20260508141514 | 71 | 164 | 0.0 | 3.0 | 0.00 | 0.00 | 0.00 | 30 | 1012.6 |
| 20260508140852 | 71 | 197 | 0.0 | 0.0 | 0.00 | 0.00 | 0.00 | 30 | 1012.6 |
| 20260508140533 | 70 | 0 | 0.0 | 1.0 | 0.00 | 0.00 | 0.00 | 31 | 1012.5 |
| 20260508140209 | 70 | 0 | 1.0 | 3.0 | 0.00 | 0.00 | 0.00 | 29 | 1012.4 |
| 20260508135851 | 70 | 214 | 1.0 | 3.0 | 0.00 | 0.00 | 0.00 | 29 | 1012.4 |
| 20260508135531 | 70 | 236 | 2.0 | 3.0 | 0.00 | 0.00 | 0.00 | 29 | 1012.4 |
| 20260508135211 | 69 | 237 | 1.0 | 3.0 | 0.00 | 0.00 | 0.00 | 28 | 1012.3 |
| 20260508134852 | 69 | 209 | 1.0 | 3.0 | 0.00 | 0.00 | 0.00 | 28 | 1012.3 |
| 20260508134535 | 68 | 207 | 0.0 | 3.0 | 0.00 | 0.00 | 0.00 | 28 | 1012.3 |
| 20260508134220 | 68 | 229 | 0.0 | 2.0 | 0.00 | 0.00 | 0.00 | 29 | 1012.2 |
| 20260508133854 | 68 | 119 | 0.0 | 1.0 | 0.00 | 0.00 | 0.00 | 29 | 1012.2 |
| 20260508133533 | 68 | 337 | 0.0 | 0.0 | 0.00 | 0.00 | 0.00 | 29 | 1012.1 |
| 20260508133210 | 67 | 0 | 0.0 | 3.0 | 0.00 | 0.00 | 0.00 | 30 | 1012.1 |
| 20260508132855 | 67 | 0 | 1.0 | 3.0 | 0.00 | 0.00 | 0.00 | 30 | 1011.8 |
| 20260508132535 | 67 | 0 | 1.0 | 3.0 | 0.00 | 0.00 | 0.00 | 30 | 1011.8 |
| 20260508132209 | 66 | 0 | 1.0 | 5.0 | 0.00 | 0.00 | 0.00 | 29 | 1011.7 |
| 20260508131854 | 66 | 0 | 0.0 | 4.0 | 0.00 | 0.00 | 0.00 | 29 | 1011.7 |
| 20260508131539 | 66 | 0 | 0.0 | 3.0 | 0.00 | 0.00 | 0.00 | 31 | 1011.6 |
| 20260508130916 | 65 | 0 | 1.0 | 7.0 | 0.00 | 0.00 | 0.00 | 30 | 1011.6 |
| 20260508130554 | 65 | 0 | 1.0 | 7.0 | 0.00 | 0.00 | 0.00 | 30 | 1011.5 |
| 20260508130228 | 65 | 0 | 2.0 | 7.0 | 0.00 | 0.00 | 0.00 | 30 | 1011.6 |
| 20260508125912 | 65 | 0 | 3.0 | 7.0 | 0.00 | 0.00 | 0.00 | 30 | 1011.5 |
| 20260508125549 | 65 | 0 | 3.0 | 7.0 | 0.00 | 0.00 | 0.00 | 29 | 1011.6 |
| 20260508125234 | 65 | 0 | 3.0 | 5.0 | 0.00 | 0.00 | 0.00 | 31 | 1011.4 |
| 20260508124617 | 65 | 0 | 2.0 | 5.0 | 0.00 | 0.00 | 0.00 | 32 | 1011.3 |
| 20260508123354 | 65 | 0 | 2.0 | 4.0 | 0.00 | 0.00 | 0.00 | 31 | 1011.3 |
| 20260508123029 | 65 | 0 | 2.0 | 3.0 | 0.00 | 0.00 | 0.00 | 31 | 1011.2 |
| 20260508122705 | 65 | 0 | 2.0 | 3.0 | 0.00 | 0.00 | 0.00 | 32 | 1011.2 |
| 20260508122341 | 65 | 0 | 2.0 | 4.0 | 0.00 | 0.00 | 0.00 | 33 | 1011.3 |
| 20260508122023 | 65 | 0 | 2.0 | 4.0 | 0.00 | 0.00 | 0.00 | 32 | 1011.3 |
| 20260508121700 | 65 | 0 | 3.0 | 4.0 | 0.00 | 0.00 | 0.00 | 32 | 1011.3 |
| 20260508121338 | 65 | 0 | 3.0 | 4.0 | 0.00 | 0.00 | 0.00 | 32 | 1011.2 |
| 20260508121021 | 65 | 0 | 3.0 | 4.0 | 0.00 | 0.00 | 0.00 | 32 | 1011.3 |
| 20260508120658 | 65 | 0 | 3.0 | 4.0 | 0.00 | 0.00 | 0.00 | 32 | 1011.3 |
| 20260508120040 | 65 | 0 | 2.0 | 4.0 | 0.00 | 0.00 | 0.00 | 31 | 1011.3 |
| 20260508115719 | 65 | 0 | 2.0 | 4.0 | 0.00 | 0.00 | 0.00 | 31 | 1011.3 |
| 20260508115354 | 65 | 0 | 2.0 | 3.0 | 0.00 | 0.00 | 0.00 | 30 | 1011.3 |
| 20260508115039 | 65 | 0 | 1.0 | 4.0 | 0.00 | 0.00 | 0.00 | 31 | 1011.3 |
| 20260508114715 | 65 | 0 | 1.0 | 4.0 | 0.00 | 0.00 | 0.00 | 31 | 1011.3 |
| 20260508114058 | 65 | 0 | 0.0 | 2.0 | 0.00 | 0.00 | 0.00 | 30 | 1011.2 |
| 20260508113742 | 66 | 0 | 1.0 | 2.0 | 0.00 | 0.00 | 0.00 | 30 | 1011.2 |
| 20260508113418 | 66 | 0 | 1.0 | 2.0 | 0.00 | 0.00 | 0.00 | 31 | 1011.3 |
| 20260508113058 | 66 | 0 | 1.0 | 4.0 | 0.00 | 0.00 | 0.00 | 29 | 1011.2 |
| 20260508112736 | 66 | 0 | 1.0 | 4.0 | 0.00 | 0.00 | 0.00 | 29 | 1011.3 |
| 20260508112121 | 66 | 0 | 1.0 | 3.0 | 0.00 | 0.00 | 0.00 | 28 | 1011.2 |
| 20260508111801 | 66 | 0 | 1.0 | 3.0 | 0.00 | 0.00 | 0.00 | 29 | 1011.3 |
| 20260508111443 | 66 | 0 | 0.0 | 3.0 | 0.00 | 0.00 | 0.00 | 29 | 1011.2 |
| 20260508111124 | 66 | 0 | 0.0 | 2.0 | 0.00 | 0.00 | 0.00 | 28 | 1011.3 |
| 20260508110759 | 66 | 0 | 0.0 | 2.0 | 0.00 | 0.00 | 0.00 | 29 | 1011.2 |
| 20260508110444 | 66 | 0 | 0.0 | 0.0 | 0.00 | 0.00 | 0.00 | 28 | 1011.2 |
| 20260508110130 | 66 | 0 | 0.0 | 1.0 | 0.00 | 0.00 | 0.00 | 28 | 1011.1 |
| 20260508105209 | 67 | 0 | 0.0 | 2.0 | 0.00 | 0.00 | 0.00 | 27 | 1011.2 |
| 20260508104848 | 67 | 0 | 0.0 | 2.0 | 0.00 | 0.00 | 0.00 | 27 | 1011.2 |
| 20260508104530 | 67 | 0 | 1.0 | 2.0 | 0.00 | 0.00 | 0.00 | 27 | 1011.1 |
| 20260508103903 | 67 | 0 | 2.0 | 3.0 | 0.00 | 0.00 | 0.00 | 27 | 1011.2 |
| 20260508103542 | 67 | 0 | 2.0 | 3.0 | 0.00 | 0.00 | 0.00 | 27 | 1011.2 |
| 20260508102925 | 67 | 0 | 0.0 | 2.0 | 0.00 | 0.00 | 0.00 | 27 | 1011.2 |
| 20260508102601 | 67 | 0 | 0.0 | 1.0 | 0.00 | 0.00 | 0.00 | 27 | 1011.2 |
| 20260508102240 | 68 | 0 | 1.0 | 0.0 | 0.00 | 0.00 | 0.00 | 27 | 1011.2 |
| 20260508101016 | 68 | 0 | 0.0 | 3.0 | 0.00 | 0.00 | 0.00 | 27 | 1011.1 |
| 20260508100700 | 68 | 0 | 0.0 | 1.0 | 0.00 | 0.00 | 0.00 | 27 | 1011.0 |
| 20260508100335 | 68 | 0 | 0.0 | 1.0 | 0.00 | 0.00 | 0.00 | 26 | 1011.0 |
| 20260508100011 | 68 | 0 | 1.0 | 4.0 | 0.00 | 0.00 | 0.00 | 27 | 1011.1 |
| 20260508095651 | 68 | 0 | 1.0 | 4.0 | 0.00 | 0.00 | 0.00 | 26 | 1011.0 |
| 20260508095329 | 69 | 0 | 1.0 | 4.0 | 0.00 | 0.00 | 0.00 | 25 | 1011.0 |
| 20260508095010 | 69 | 0 | 1.0 | 4.0 | 0.00 | 0.00 | 0.00 | 26 | 1011.0 |
| 20260508094648 | 69 | 0 | 1.0 | 4.0 | 0.00 | 0.00 | 0.00 | 26 | 1011.0 |
| 20260508094329 | 69 | 0 | 1.0 | 4.0 | 0.00 | 0.00 | 0.00 | 26 | 1010.9 |
| 20260508094014 | 69 | 0 | 1.0 | 3.0 | 0.00 | 0.00 | 0.00 | 26 | 1011.0 |
| 20260508093359 | 69 | 0 | 1.0 | 3.0 | 0.00 | 0.00 | 0.00 | 25 | 1011.0 |
| 20260508092740 | 69 | 0 | 0.0 | 3.0 | 0.00 | 0.00 | 0.00 | 25 | 1010.9 |
| 20260508092419 | 69 | 0 | 1.0 | 3.0 | 0.00 | 0.00 | 0.00 | 26 | 1010.9 |
| 20260508092100 | 69 | 0 | 1.0 | 3.0 | 0.00 | 0.00 | 0.00 | 27 | 1010.9 |
| 20260508091745 | 69 | 0 | 2.0 | 3.0 | 0.00 | 0.00 | 0.00 | 25 | 1011.0 |
| 20260508091429 | 69 | 0 | 2.0 | 3.0 | 0.00 | 0.00 | 0.00 | 25 | 1011.0 |
| 20260508091111 | 69 | 0 | 1.0 | 3.0 | 0.00 | 0.00 | 0.00 | 26 | 1010.9 |
| 20260508090756 | 69 | 0 | 1.0 | 3.0 | 0.00 | 0.00 | 0.00 | 26 | 1010.8 |
| 20260508090442 | 69 | 0 | 0.0 | 3.0 | 0.00 | 0.00 | 0.00 | 25 | 1010.8 |
| 20260508090127 | 69 | 0 | 0.0 | 3.0 | 0.00 | 0.00 | 0.00 | 26 | 1010.7 |
| 20260508085807 | 69 | 0 | 0.0 | 1.0 | 0.00 | 0.00 | 0.00 | 26 | 1010.8 |
| 20260508085145 | 69 | 0 | 0.0 | 2.0 | 0.00 | 0.00 | 0.00 | 25 | 1010.7 |
| 20260508084830 | 69 | 0 | 1.0 | 1.0 | 0.00 | 0.00 | 0.00 | 25 | 1010.8 |
| 20260508084507 | 69 | 0 | 1.0 | 3.0 | 0.00 | 0.00 | 0.00 | 25 | 1010.7 |
| 20260508083840 | 70 | 0 | 0.0 | 2.0 | 0.00 | 0.00 | 0.00 | 26 | 1010.8 |
| 20260508083521 | 70 | 0 | 0.0 | 2.0 | 0.00 | 0.00 | 0.00 | 25 | 1010.8 |
| 20260508083200 | 70 | 0 | 0.0 | 2.0 | 0.00 | 0.00 | 0.00 | 25 | 1010.8 |
| 20260508082545 | 70 | 0 | 0.0 | 3.0 | 0.00 | 0.00 | 0.00 | 25 | 1010.8 |
| 20260508081624 | 70 | 0 | 0.0 | 0.0 | 0.00 | 0.00 | 0.00 | 25 | 1011.0 |
| 20260508081308 | 70 | 0 | 0.0 | 2.0 | 0.00 | 0.00 | 0.00 | 25 | 1011.0 |
| 20260508080950 | 70 | 0 | 0.0 | 2.0 | 0.00 | 0.00 | 0.00 | 25 | 1011.0 |
| 20260508080627 | 71 | 0 | 0.0 | 2.0 | 0.00 | 0.00 | 0.00 | 24 | 1011.0 |
| 20260508080308 | 71 | 0 | 0.0 | 1.0 | 0.00 | 0.00 | 0.00 | 24 | 1011.0 |
| 20260508075951 | 71 | 0 | 0.0 | 3.0 | 0.00 | 0.00 | 0.00 | 24 | 1010.9 |
| 20260508075628 | 71 | 0 | 0.0 | 3.0 | 0.00 | 0.00 | 0.00 | 24 | 1011.0 |
| 20260508075309 | 71 | 0 | 1.0 | 3.0 | 0.00 | 0.00 | 0.00 | 24 | 1011.0 |
| 20260508074950 | 71 | 0 | 0.0 | 2.0 | 0.00 | 0.00 | 0.00 | 24 | 1011.0 |
| 20260508074632 | 71 | 0 | 0.0 | 2.0 | 0.00 | 0.00 | 0.00 | 23 | 1011.0 |
| 20260508074313 | 71 | 0 | 0.0 | 2.0 | 0.00 | 0.00 | 0.00 | 23 | 1011.0 |
| 20260508073950 | 71 | 0 | 1.0 | 2.0 | 0.00 | 0.00 | 0.00 | 23 | 1011.1 |
| 20260508073634 | 72 | 0 | 1.0 | 2.0 | 0.00 | 0.00 | 0.00 | 23 | 1011.0 |
| 20260508073314 | 72 | 0 | 1.0 | 2.0 | 0.00 | 0.00 | 0.00 | 23 | 1011.1 |
| 20260508072954 | 72 | 0 | 0.0 | 2.0 | 0.00 | 0.00 | 0.00 | 23 | 1011.0 |
| 20260508072639 | 72 | 0 | 0.0 | 2.0 | 0.00 | 0.00 | 0.00 | 22 | 1011.1 |
| 20260508072024 | 72 | 0 | 0.0 | 1.0 | 0.00 | 0.00 | 0.00 | 22 | 1011.1 |
| 20260508071703 | 72 | 0 | 0.0 | 1.0 | 0.00 | 0.00 | 0.00 | 21 | 1011.1 |
| 20260508071346 | 72 | 0 | 0.0 | 1.0 | 0.00 | 0.00 | 0.00 | 21 | 1011.0 |
| 20260508071031 | 73 | 0 | 0.0 | 2.0 | 0.00 | 0.00 | 0.00 | 21 | 1011.0 |
| 20260508070714 | 73 | 0 | 1.0 | 5.0 | 0.00 | 0.00 | 0.00 | 21 | 1011.0 |
| 20260508070355 | 73 | 0 | 1.0 | 5.0 | 0.00 | 0.00 | 0.00 | 20 | 1011.1 |
| 20260508065739 | 73 | 0 | 1.0 | 5.0 | 0.00 | 0.00 | 0.00 | 20 | 1011.0 |
| 20260508065419 | 73 | 0 | 2.0 | 5.0 | 0.00 | 0.00 | 0.00 | 20 | 1011.0 |
| 20260508065100 | 74 | 0 | 2.0 | 5.0 | 0.00 | 0.00 | 0.00 | 20 | 1011.1 |
| 20260508064738 | 74 | 0 | 2.0 | 4.0 | 0.00 | 0.00 | 0.00 | 19 | 1011.0 |
| 20260508064419 | 74 | 0 | 1.0 | 4.0 | 0.00 | 0.00 | 0.00 | 20 | 1011.1 |
| 20260508063756 | 74 | 0 | 2.0 | 4.0 | 0.00 | 0.00 | 0.00 | 19 | 1011.1 |
| 20260508063137 | 75 | 0 | 2.0 | 4.0 | 0.00 | 0.00 | 0.00 | 19 | 1011.1 |
| 20260508062822 | 75 | 0 | 2.0 | 4.0 | 0.00 | 0.00 | 0.00 | 19 | 1011.0 |
| 20260508062508 | 75 | 0 | 2.0 | 4.0 | 0.00 | 0.00 | 0.00 | 19 | 1011.0 |
| 20260508062150 | 75 | 0 | 2.0 | 4.0 | 0.00 | 0.00 | 0.00 | 18 | 1011.0 |
| 20260508061231 | 76 | 0 | 1.0 | 4.0 | 0.00 | 0.00 | 0.00 | 18 | 1010.9 |
| 20260508060910 | 76 | 0 | 1.0 | 4.0 | 0.00 | 0.00 | 0.00 | 18 | 1010.9 |
| 20260508060547 | 76 | 0 | 1.0 | 4.0 | 0.00 | 0.00 | 0.00 | 19 | 1011.0 |
| 20260508055628 | 77 | 0 | 0.0 | 2.0 | 0.00 | 0.00 | 0.00 | 17 | 1011.0 |
| 20260508055306 | 77 | 0 | 0.0 | 2.0 | 0.00 | 0.00 | 0.00 | 17 | 1011.1 |
| 20260508054940 | 77 | 0 | 0.0 | 2.0 | 0.00 | 0.00 | 0.00 | 17 | 1011.1 |
| 20260508054617 | 76 | 0 | 1.0 | 0.0 | 0.00 | 0.00 | 0.00 | 17 | 1011.1 |
| 20260508054258 | 76 | 0 | 2.0 | 4.0 | 0.00 | 0.00 | 0.00 | 17 | 1011.0 |
| 20260508053943 | 76 | 0 | 2.0 | 4.0 | 0.00 | 0.00 | 0.00 | 16 | 1011.0 |
| 20260508053619 | 77 | 0 | 1.0 | 3.0 | 0.00 | 0.00 | 0.00 | 16 | 1011.0 |
| 20260508053259 | 77 | 0 | 1.0 | 3.0 | 0.00 | 0.00 | 0.00 | 17 | 1011.0 |
| 20260508052937 | 77 | 0 | 1.0 | 3.0 | 0.00 | 0.00 | 0.00 | 17 | 1011.0 |
| 20260508052615 | 78 | 0 | 0.0 | 3.0 | 0.00 | 0.00 | 0.00 | 17 | 1011.0 |
| 20260508052256 | 78 | 0 | 0.0 | 1.0 | 0.00 | 0.00 | 0.00 | 16 | 1011.1 |
| 20260508051941 | 79 | 0 | 0.0 | 0.0 | 0.00 | 0.00 | 0.00 | 16 | 1011.1 |
| 20260508051617 | 79 | 0 | 0.0 | 0.0 | 0.00 | 0.00 | 0.00 | 16 | 1011.1 |
| 20260508051259 | 79 | 0 | 0.0 | 0.0 | 0.00 | 0.00 | 0.00 | 16 | 1011.1 |
| 20260508050936 | 80 | 0 | 1.0 | 2.0 | 0.00 | 0.00 | 0.00 | 15 | 1011.1 |
| 20260508050610 | 80 | 0 | 1.0 | 2.0 | 0.00 | 0.00 | 0.00 | 15 | 1011.0 |
| 20260508050245 | 80 | 0 | 0.0 | 2.0 | 0.00 | 0.00 | 0.00 | 14 | 1011.0 |
| 20260508045921 | 81 | 0 | 0.0 | 3.0 | 0.00 | 0.00 | 0.00 | 14 | 1011.0 |
| 20260508045607 | 81 | 0 | 0.0 | 3.0 | 0.00 | 0.00 | 0.00 | 14 | 1011.1 |
| 20260508045251 | 82 | 0 | 1.0 | 3.0 | 0.00 | 0.00 | 0.00 | 14 | 1011.0 |
| 20260508044628 | 82 | 0 | 1.0 | 3.0 | 0.00 | 0.00 | 0.00 | 14 | 1011.0 |
| 20260508044311 | 82 | 0 | 1.0 | 3.0 | 0.00 | 0.00 | 0.00 | 13 | 1011.1 |
| 20260508043957 | 83 | 0 | 1.0 | 3.0 | 0.00 | 0.00 | 0.00 | 13 | 1011.1 |
| 20260508043342 | 83 | 0 | 1.0 | 3.0 | 0.00 | 0.00 | 0.00 | 13 | 1011.1 |
| 20260508043026 | 83 | 0 | 1.0 | 3.0 | 0.00 | 0.00 | 0.00 | 13 | 1011.0 |
| 20260508042706 | 83 | 0 | 1.0 | 3.0 | 0.00 | 0.00 | 0.00 | 13 | 1011.0 |
| 20260508042350 | 84 | 0 | 1.0 | 3.0 | 0.00 | 0.00 | 0.00 | 13 | 1010.9 |
| 20260508042031 | 84 | 0 | 2.0 | 3.0 | 0.00 | 0.00 | 0.00 | 12 | 1010.9 |
| 20260508041712 | 84 | 0 | 2.0 | 5.0 | 0.00 | 0.00 | 0.00 | 12 | 1010.9 |
| 20260508041352 | 84 | 0 | 2.0 | 5.0 | 0.00 | 0.00 | 0.00 | 12 | 1010.7 |
| 20260508041030 | 85 | 0 | 2.0 | 5.0 | 0.00 | 0.00 | 0.00 | 12 | 1010.8 |
| 20260508040707 | 85 | 0 | 3.0 | 5.0 | 0.00 | 0.00 | 0.00 | 12 | 1010.8 |
| 20260508040345 | 85 | 0 | 2.0 | 5.0 | 0.00 | 0.00 | 0.00 | 12 | 1010.9 |
| 20260508040020 | 85 | 0 | 2.0 | 5.0 | 0.00 | 0.00 | 0.00 | 12 | 1010.8 |
| 20260508035703 | 86 | 0 | 2.0 | 4.0 | 0.00 | 0.00 | 0.00 | 12 | 1010.8 |
| 20260508035339 | 86 | 0 | 2.0 | 4.0 | 0.00 | 0.00 | 0.00 | 12 | 1010.7 |
| 20260508035016 | 86 | 0 | 2.0 | 9.0 | 0.00 | 0.00 | 0.00 | 12 | 1010.7 |
| 20260508034657 | 86 | 0 | 3.0 | 9.0 | 0.00 | 0.00 | 0.00 | 12 | 1010.6 |
| 20260508033740 | 86 | 183 | 4.0 | 9.0 | 0.00 | 0.00 | 0.00 | 12 | 1010.6 |
| 20260508033421 | 86 | 218 | 4.0 | 9.0 | 0.00 | 0.00 | 0.00 | 12 | 1010.6 |
| 20260508032804 | 86 | 223 | 3.0 | 9.0 | 0.00 | 0.00 | 0.00 | 12 | 1010.5 |
| 20260508031849 | 86 | 256 | 3.0 | 9.0 | 0.00 | 0.00 | 0.00 | 12 | 1010.4 |
| 20260508031533 | 86 | 234 | 3.0 | 7.0 | 0.00 | 0.00 | 0.00 | 13 | 1010.3 |
| 20260508031215 | 87 | 224 | 4.0 | 9.0 | 0.00 | 0.00 | 0.00 | 13 | 1010.4 |
| 20260508030851 | 87 | 221 | 3.0 | 9.0 | 0.00 | 0.00 | 0.00 | 14 | 1010.4 |
| 20260508030225 | 87 | 165 | 4.0 | 9.0 | 0.00 | 0.00 | 0.00 | 14 | 1010.3 |
| 20260508025909 | 87 | 159 | 4.0 | 9.0 | 0.00 | 0.00 | 0.00 | 13 | 1010.3 |
| 20260508025254 | 87 | 176 | 4.0 | 9.0 | 0.00 | 0.00 | 0.00 | 14 | 1010.3 |
| 20260508024937 | 87 | 168 | 4.0 | 8.0 | 0.00 | 0.00 | 0.00 | 14 | 1010.2 |
| 20260508024621 | 87 | 159 | 3.0 | 8.0 | 0.00 | 0.00 | 0.00 | 14 | 1010.2 |
| 20260508024300 | 87 | 158 | 2.0 | 6.0 | 0.00 | 0.00 | 0.00 | 14 | 1010.2 |
| 20260508023636 | 87 | 175 | 3.0 | 6.0 | 0.00 | 0.00 | 0.00 | 14 | 1010.2 |
| 20260508023011 | 88 | 164 | 2.0 | 5.0 | 0.00 | 0.00 | 0.00 | 14 | 1010.2 |
| 20260508022655 | 88 | 167 | 1.0 | 6.0 | 0.00 | 0.00 | 0.00 | 14 | 1010.3 |
| 20260508022336 | 88 | 173 | 1.0 | 6.0 | 0.00 | 0.00 | 0.00 | 13 | 1010.2 |
| 20260508022021 | 88 | 169 | 2.0 | 6.0 | 0.00 | 0.00 | 0.00 | 13 | 1010.2 |
| 20260508021707 | 88 | 192 | 3.0 | 7.0 | 0.00 | 0.00 | 0.00 | 13 | 1010.3 |
| 20260508021348 | 88 | 169 | 3.0 | 7.0 | 0.00 | 0.00 | 0.00 | 13 | 1010.2 |
| 20260508021022 | 89 | 165 | 3.0 | 7.0 | 0.00 | 0.00 | 0.00 | 13 | 1010.2 |
| 20260508020704 | 89 | 144 | 3.0 | 7.0 | 0.00 | 0.00 | 0.00 | 13 | 1010.3 |
| 20260508020041 | 89 | 193 | 3.0 | 7.0 | 0.00 | 0.00 | 0.00 | 13 | 1010.3 |
| 20260508015725 | 89 | 202 | 2.0 | 8.0 | 0.00 | 0.00 | 0.00 | 13 | 1010.2 |
| 20260508014800 | 88 | 196 | 4.0 | 8.0 | 0.00 | 0.00 | 0.00 | 13 | 1010.2 |
| 20260508014441 | 88 | 173 | 4.0 | 8.0 | 0.00 | 0.00 | 0.00 | 13 | 1010.2 |
| 20260508014118 | 88 | 166 | 3.0 | 8.0 | 0.00 | 0.00 | 0.00 | 14 | 1010.2 |
| 20260508013154 | 88 | 219 | 2.0 | 8.0 | 0.00 | 0.00 | 0.00 | 13 | 1010.2 |
| 20260508012830 | 88 | 166 | 2.0 | 8.0 | 0.00 | 0.00 | 0.00 | 13 | 1010.2 |